This is the latest recevied weather packets stored in our database for station/object VA2IEI-13. If no packets are shown the sender has not sent any weather packets the latest 10 day(s).
| Time | Temp. | Humidity | Pressure | Rain* | Wind** | Luminosity | Snow |
|---|---|---|---|---|---|---|---|
| 1777728029 | 6.11° C | 65% | 1015.5 hPa | 0 mm | - | - | - |
| 1777724463 | 4.44° C | 78% | 1015.7 hPa | 0 mm | - | - | - |
| 1777723859 | 4.44° C | 80% | 1015.8 hPa | 0 mm | - | - | - |
| 1777722067 | 3.33° C | 82% | 1015.7 hPa | 0 mm | - | - | - |
| 1777720235 | 3.33° C | 81% | 1015.6 hPa | 0 mm | - | - | - |
| 1777719043 | 3.33° C | 83% | 1015.6 hPa | 0 mm | - | - | - |
| 1777716067 | 0.56° C | 85% | 1014.8 hPa | 0 mm | - | - | - |
| 1777715463 | 0.56° C | 85% | 1014.8 hPa | 0 mm | - | - | - |
| 1777713046 | 0.56° C | 83% | 1014.6 hPa | 0 mm | - | - | - |
| 1777711838 | -0.56° C | 86% | 1014.5 hPa | 0 mm | - | - | - |
| 1777711232 | -0.56° C | 84% | 1014.6 hPa | 0 mm | - | - | - |
| 1777707608 | 1.11° C | 80% | 1014.4 hPa | 0 mm | - | - | - |
| 1777704073 | 1.67° C | 78% | 1014.5 hPa | 0 mm | - | - | - |
| 1777703468 | 2.22° C | 78% | 1014.6 hPa | 0 mm | - | - | - |
| 1777699861 | 2.78° C | 78% | 1014.5 hPa | 0 mm | - | - | - |
| 1777695069 | 3.33° C | 75% | 1014.3 hPa | 0 mm | - | - | - |
| 1777693862 | 3.33° C | 75% | 1014.3 hPa | 0 mm | - | - | - |
| 1777689632 | 4.44° C | 72% | 1014.3 hPa | 0 mm | - | - | - |
| 1777687880 | 5° C | 71% | 1014.5 hPa | 0 mm | - | - | - |
| 1777685462 | 5° C | 70% | 1014.2 hPa | 0 mm | - | - | - |
| 1777681217 | 6.11° C | 65% | 1013.8 hPa | 0 mm | - | - | - |
| 1777680680 | 6.67° C | 65% | 1013.6 hPa | 0 mm | - | - | - |
| 1777668049 | 7.78° C | 69% | 1012 hPa | 0 mm | - | - | - |
| 1777666235 | 7.78° C | 67% | 1011.9 hPa | 0 mm | - | - | - |
| 1777665027 | 8.33° C | 68% | 1011.5 hPa | 0 mm | - | - | - |
* Rain latest hour (hover to see other rain measurements)
** Current wind speed in m/s (hover to see current wind gust speed)